アトラス彗星

C/2019 N1 ( ATLAS )

English version
Home page
Updated on July 19, 2019

---------------------------------------------------------------------

・ プロフィール

発見日 2019年7月5日
発見光度 18.6等
発見者 Asteroid Terrestrial-Impact Last Alert System (ATLAS) search program

・ 軌道要素

Epoch 2020 Dec. 17.0 TT = JDT 2459200.5                                         
T 2020 Dec. 2.26467 TT                                  MPCLINUX                
q   1.7038131            (2000.0)            P               Q                  
z  +0.0008607      Peri.  193.52467     -0.93794578     +0.25739228             
 +/-0.0004881      Node    13.55859     -0.14441024     +0.31936691             
e   0.9985336      Incl.   82.42548     -0.31528303     -0.91200548             
From 101 observations 2019 June 10-July 11, mean residual 0".4.                 

・ 星図

・ 光度変化

        m1 = 6.5 + 5 logΔ + 10.0 log r

---------------------------------------------------------------------

軌道要素はM.P.E.C. 2019-N160に掲載されたものです。
星図はステラナビゲータ Ver.10 (アストロアーツ) で作成したものです。
光度グラフはComet for Windowsで作成したものです。

---------------------------------------------------------------------

Copyright(C) Seiichi Yoshida (comet@aerith.net). All rights reserved.